Voltar ao catálogo

STARLINK-32127

AtivoComunicaçõesVLEO
NORAD 60146·PAYLOAD·🇺🇸 United States

Lançado Jun 27, 2024 de Cape Canaveral Space Force Station

Loading…

Próximas Passagens (próximas 24 horas)

TLE

AtualizadoSource: CelesTrak SupGP

Época: Sep 14, 2026, 20:37 UTC

1 60146C 24120M   26257.85951389 -.00030549  00000+0 -90235-3 0  2577
2 60146  53.1576 157.8554 0001352  83.6451  31.5872 15.34413532    17

Acompanhe STARLINK-32127 em tempo real com AllMySat

Download on the App Store